Weather History for KPKD - May, 2013

Change the Weather History Date:

Sunday, May 19, 2013

  Actual Average Record
Temperature  
Mean Temperature 65 °F -  
Max Temperature 75 °F 69 °F 87 °F (1992)
Min Temperature 57 °F 44 °F 26 °F (2002)
Growing Degree Days 15 (Base 50)    
Moisture  
Dew Point 59 °F    
Average Humidity 91    
Maximum Humidity 100    
Minimum Humidity 65    
Precipitation  
Precipitation 0.88 in - - ()
Sea Level Pressure  
Sea Level Pressure 29.68 in    
Wind  
Wind Speed 8 mph (East)    
Max Wind Speed 16 mph    
Max Gust Speed 32 mph    
Visibility 6 miles    
Events Rain    
Averages and records for this station are not official NWS values.
T = Trace of Precipitation, MM = Missing Value Source: NWS Daily Summary

Daily Weather History Graph

Daily Weather History Graph

Search for Another Location

Airport or City:

Trip Planner

Search our weather history database for the weather conditions in past years. The results will help you decide how hot, cold, wet, or windy it might be!

Date:

Astronomy

May. 19, 2013 Rise Set
Actual Time 5:40 AM CDT 8:53 PM CDT
Civil Twilight 5:03 AM CDT 9:30 PM CDT
Nautical Twilight 4:16 AM CDT 10:18 PM CDT
Astronomical Twilight 3:16 AM CDT 11:18 PM CDT
Moon 2:37 PM CDT (5/19) 2:27 AM CDT (5/19)
Length of Visible Light 16h 26m
Length of Day
15h 13m
Waxing Gibbous, 65% of the Moon is Illuminated
May 19
Waxing Gibbous
May 24
Full
May 31
Last Quarter
Jun 8
New
Jun 16
First Quarter

Hourly Weather History & Observations

Time (CDT) Temp. Dew Point Humidity Pressure Visibility Wind Dir Wind Speed Gust Speed Precip Events Conditions
12:05 AM 59.0 °F 57.2 °F 94% 29.80 in 1.8 mi East 6.9 mph - N/A   Overcast
12:53 AM 57.9 °F 57.0 °F 97% 29.81 in 1.0 mi East 5.8 mph - N/A   Overcast
1:33 AM 57.2 °F 57.2 °F 100% 29.77 in 3.0 mi East 8.1 mph - N/A   Overcast
1:53 AM 57.9 °F 57.0 °F 97% 29.78 in 5.0 mi East 6.9 mph - N/A   Overcast
2:53 AM 57.0 °F 55.9 °F 96% 29.78 in 5.0 mi ENE 5.8 mph - N/A   Overcast
3:23 AM 57.2 °F 55.4 °F 94% 29.78 in 4.0 mi ESE 8.1 mph - 0.01 in Rain Light Rain
3:53 AM 61.0 °F 57.0 °F 87% 29.74 in 8.0 mi East 11.5 mph - 0.04 in Rain Light Rain
4:53 AM 57.9 °F 55.9 °F 93% 29.73 in 6.0 mi ESE 11.5 mph - 0.00 in   Partly Cloudy
5:08 AM 57.2 °F 55.4 °F 94% 29.73 in 6.0 mi East 9.2 mph - N/A   Scattered Clouds
5:53 AM 57.9 °F 57.0 °F 97% 29.73 in 6.0 mi East 5.8 mph - N/A   Mostly Cloudy
6:53 AM 59.0 °F 57.2 °F 94% 29.75 in 6.0 mi SW 4.6 mph - N/A Rain Light Rain
7:03 AM 57.2 °F 57.2 °F 100% 29.74 in 6.0 mi SE 3.5 mph - 0.00 in   Overcast
7:53 AM 57.9 °F 55.9 °F 93% 29.73 in 3.0 mi East 5.8 mph - 0.00 in   Mostly Cloudy
8:38 AM 57.2 °F 57.2 °F 100% 29.72 in 4.0 mi East 6.9 mph - 0.00 in   Overcast
8:53 AM 57.9 °F 57.0 °F 97% 29.71 in 4.0 mi East 8.1 mph - 0.00 in   Overcast
9:31 AM 59.0 °F 57.2 °F 94% 29.68 in 4.0 mi ENE 8.1 mph - N/A   Overcast
9:49 AM 60.8 °F 57.2 °F 88% 29.66 in 4.0 mi NE 10.4 mph - 0.01 in   Mostly Cloudy
9:53 AM 60.1 °F 57.9 °F 93% 29.65 in 4.0 mi NE 8.1 mph - 0.01 in   Mostly Cloudy
10:30 AM 60.8 °F 57.2 °F 88% 29.67 in 4.0 mi ENE 6.9 mph - 0.00 in   Overcast
10:53 AM 60.1 °F 57.9 °F 93% 29.69 in 5.0 mi East 4.6 mph - 0.00 in   Overcast
11:31 AM 60.8 °F 57.2 °F 88% 29.69 in 5.0 mi East 8.1 mph - N/A   Overcast
11:53 AM 61.0 °F 57.9 °F 90% 29.69 in 6.0 mi ENE 9.2 mph - N/A   Overcast
12:14 PM 60.8 °F 57.2 °F 88% 29.68 in 7.0 mi East 8.1 mph - N/A   Overcast
12:53 PM 64.0 °F 59.0 °F 84% 29.68 in 10.0 mi ENE 8.1 mph - N/A   Mostly Cloudy
1:00 PM 64.4 °F 60.8 °F 88% 29.67 in 10.0 mi ENE 8.1 mph - N/A   Mostly Cloudy
1:53 PM 73.4 °F 60.8 °F 65% 29.66 in 10.0 mi SSE 16.1 mph - N/A   Overcast
2:53 PM 73.4 °F 60.8 °F 65% 29.65 in 10.0 mi South 15.0 mph - N/A   Mostly Cloudy
3:53 PM 72.0 °F 62.1 °F 71% 29.64 in 10.0 mi East 12.7 mph 19.6 mph N/A   Overcast
4:53 PM 73.0 °F 63.0 °F 71% 29.62 in 10.0 mi East 16.1 mph 21.9 mph N/A   Mostly Cloudy
5:53 PM 72.0 °F 64.0 °F 76% 29.61 in 3.0 mi East 11.5 mph - 0.03 in Rain Rain
5:58 PM 69.8 °F 64.4 °F 83% 29.61 in 1.8 mi East 8.1 mph - 0.04 in Rain Heavy Rain
6:03 PM 69.8 °F 64.4 °F 83% 29.61 in 3.0 mi East 6.9 mph - 0.04 in Rain Light Rain
6:53 PM 64.0 °F 62.1 °F 93% 29.68 in 1.5 mi South 16.1 mph 32.2 mph 0.33 in Rain Heavy Rain
6:56 PM 62.6 °F 62.6 °F 100% 29.68 in 1.0 mi SSE 16.1 mph 31.1 mph 0.09 in Rain Heavy Rain
7:06 PM 62.6 °F 60.8 °F 94% 29.67 in 1.5 mi South 8.1 mph - 0.24 in Rain Heavy Rain
7:09 PM 62.6 °F 60.8 °F 94% 29.67 in 2.0 mi SSE 6.9 mph - 0.25 in Rain Heavy Rain
7:19 PM 62.6 °F 60.8 °F 94% 29.66 in 5.0 mi ESE 3.5 mph - 0.27 in Rain Rain
7:53 PM 62.1 °F 60.1 °F 93% 29.65 in 8.0 mi NE 3.5 mph - 0.36 in Rain Light Rain
8:53 PM 62.1 °F 61.0 °F 96% 29.66 in 6.0 mi NE 5.8 mph - 0.04 in Rain Light Rain
9:21 PM 62.6 °F 60.8 °F 94% 29.66 in 7.0 mi East 6.9 mph - 0.02 in Rain Light Rain
9:37 PM 62.6 °F 60.8 °F 94% 29.66 in 5.0 mi NE 11.5 mph - 0.03 in Rain Light Rain
9:53 PM 61.0 °F 59.0 °F 93% 29.66 in 6.0 mi ENE 11.5 mph - 0.04 in Rain Light Rain
10:02 PM 60.8 °F 57.2 °F 88% 29.66 in 6.0 mi ENE 12.7 mph 19.6 mph 0.00 in Rain Light Rain
10:06 PM 60.8 °F 57.2 °F 88% 29.65 in 6.0 mi East 10.4 mph 19.6 mph 0.00 in Rain Light Rain
10:20 PM 59.0 °F 57.2 °F 94% 29.65 in 6.0 mi East 11.5 mph 18.4 mph 0.00 in Rain Light Rain
10:35 PM 59.0 °F 57.2 °F 94% 29.65 in 7.0 mi East 6.9 mph - 0.01 in Rain Light Rain
10:53 PM 57.2 °F 57.2 °F 100% 29.64 in 6.0 mi ENE 10.4 mph - N/A Rain Light Rain
11:04 PM 57.2 °F 55.4 °F 94% 29.64 in 6.0 mi East 8.1 mph 16.1 mph 0.01 in Rain Light Rain
11:23 PM 57.2 °F 55.4 °F 94% 29.63 in 9.0 mi East 10.4 mph - 0.02 in Rain Light Rain
11:38 PM 57.2 °F 55.4 °F 94% 29.62 in 8.0 mi East 10.4 mph 19.6 mph 0.02 in Rain Light Rain
11:53 PM 57.0 °F 55.0 °F 93% 29.62 in 10.0 mi East 9.2 mph 19.6 mph 0.03 in Rain Light Rain